Weather History for Imperial, CA

Change the Weather History Date:

Wednesday, October 9, 2013

  Actual Average Record
Temperature  
Mean Temperature 68 °F -  
Max Temperature 75 °F 92 °F 107 °F (1996)
Min Temperature 57 °F 63 °F 48 °F (1961)
Cooling Degree Days 2    
Growing Degree Days 18 (Base 50)    
Moisture  
Dew Point 44 °F    
Average Humidity 44    
Maximum Humidity 72    
Minimum Humidity 31    
Precipitation  
Precipitation 0.00 in - - ()
Sea Level Pressure  
Sea Level Pressure 29.70 in    
Wind  
Wind Speed 22 mph (West)    
Max Wind Speed 31 mph    
Max Gust Speed 39 mph    
Visibility 9 miles    
Events Rain    
Averages and records for this station are not official NWS values.
T = Trace of Precipitation, MM = Missing Value Source: NWS Daily Summary

Daily Weather History Graph

Daily Weather History Graph

Search for Another Location

Airport:

Trip Planner

Search our weather history database for the weather conditions in past years. The results will help you decide how hot, cold, wet, or windy it might be!

Date:

Astronomy

Oct. 09, 2013 Rise Set
Actual Time 6:42 AM PDT 6:16 PM PDT
Civil Twilight 6:17 AM PDT 6:40 PM PDT
Nautical Twilight 5:48 AM PDT 7:09 PM PDT
Astronomical Twilight 5:20 AM PDT 7:37 PM PDT
Moon 11:29 AM PDT (10/9) 10:07 PM PDT (10/9)
Length of Visible Light 12h 23m
Length of Day
11h 33m
Waxing Crescent, 26% of the Moon is Illuminated
Oct 9
Waxing Crescent
Oct 11
First Quarter
Oct 18
Full
Oct 26
Last Quarter
Nov 3
New

Hourly Weather History & Observations

Time (PDT) Temp. Dew Point Humidity Pressure Visibility Wind Dir Wind Speed Gust Speed Precip Events Conditions
12:53 AM 66.9 °F 45.0 °F 45% 29.67 in 9.0 mi West 23.0 mph 29.9 mph N/A   Clear
1:53 AM 66.9 °F 45.0 °F 45% 29.67 in 10.0 mi West 20.7 mph 28.8 mph N/A   Clear
2:53 AM 66.0 °F 44.1 °F 45% 29.65 in 7.0 mi West 19.6 mph 29.9 mph N/A   Clear
3:53 AM 66.0 °F 46.0 °F 48% 29.65 in 9.0 mi West 25.3 mph 35.7 mph N/A   Clear
4:53 AM 64.9 °F 45.0 °F 48% 29.65 in 7.0 mi West 26.5 mph 36.8 mph N/A   Partly Cloudy
5:53 AM 64.0 °F 45.0 °F 50% 29.66 in 10.0 mi West 19.6 mph 28.8 mph N/A   Clear
6:53 AM 64.9 °F 45.0 °F 48% 29.69 in 10.0 mi West 24.2 mph 33.4 mph N/A   Clear
7:14 AM 66.2 °F 44.6 °F 46% 29.68 in 4.0 mi WNW 23.0 mph 29.9 mph N/A   Haze
7:38 AM 66.2 °F 46.4 °F 49% 29.69 in 4.0 mi West 26.5 mph 36.8 mph N/A   Haze
7:53 AM 66.9 °F 46.0 °F 47% 29.70 in 6.0 mi West 23.0 mph 33.4 mph N/A   Haze
8:02 AM 66.2 °F 44.6 °F 46% 29.71 in 10.0 mi West 21.9 mph 32.2 mph N/A   Scattered Clouds
8:53 AM 70.0 °F 43.0 °F 38% 29.72 in 10.0 mi West 25.3 mph 34.5 mph N/A   Clear
9:53 AM 71.1 °F 45.0 °F 39% 29.73 in 10.0 mi West 25.3 mph 35.7 mph N/A   Clear
10:53 AM 73.9 °F 42.1 °F 32% 29.73 in 10.0 mi West 21.9 mph 31.1 mph N/A   Clear
11:53 AM 73.9 °F 44.1 °F 34% 29.73 in 10.0 mi West 23.0 mph 32.2 mph N/A   Clear
12:53 PM 73.9 °F 42.1 °F 32% 29.70 in 10.0 mi West 26.5 mph 38.0 mph N/A   Clear
1:53 PM 73.0 °F 41.0 °F 31% 29.69 in 10.0 mi West 23.0 mph 36.8 mph N/A   Clear
2:53 PM 73.0 °F 43.0 °F 34% 29.68 in 10.0 mi West 31.1 mph 39.1 mph N/A   Clear
3:53 PM 73.0 °F 42.1 °F 33% 29.68 in 10.0 mi West 24.2 mph 32.2 mph N/A   Clear
4:53 PM 73.0 °F 42.1 °F 33% 29.68 in 10.0 mi WSW 23.0 mph 32.2 mph N/A   Clear
5:53 PM 68.0 °F 44.1 °F 42% 29.69 in 10.0 mi WSW 17.3 mph - N/A   Clear
6:53 PM 66.9 °F 41.0 °F 39% 29.69 in 10.0 mi WSW 13.8 mph 18.4 mph N/A   Clear
7:53 PM 64.0 °F 44.1 °F 48% 29.70 in 10.0 mi West 5.8 mph - N/A   Partly Cloudy
8:53 PM 64.9 °F 45.0 °F 48% 29.71 in 10.0 mi WSW 12.7 mph - N/A   Partly Cloudy
9:53 PM 64.9 °F 46.0 °F 50% 29.73 in 10.0 mi West 8.1 mph - N/A   Overcast
10:53 PM 62.1 °F 48.9 °F 62% 29.75 in 10.0 mi WNW 11.5 mph - 0.00 in Rain Light Rain
11:53 PM 57.9 °F 48.9 °F 72% 29.77 in 9.0 mi West 3.5 mph - 0.00 in Rain Light Rain